Location: Unspecified
(0.0000°N, 0.0000°E)
Time: 15:43:22
(UTC+01:00)

PROBA 2 - Visible Passes

Search period start: 01 February 2015 00:00
Search period end: 11 February 2015 00:00
Orbit: 706 x 727 km, 98.3° (Epoch: 31 January)

Date Brightness Start Highest point End Pass type
(mag) Time Alt. Az. Time Alt. Az. Time Alt. Az.
02 Feb ? 19:59:27 10° NNW 20:03:30 27° W 20:07:28 10° SW visible
03 Feb ? 06:45:02 10° SE 06:49:16 31° E 06:53:34 10° NNE visible
04 Feb ? 19:55:32 10° NNW 19:59:44 30° W 20:03:53 10° SW visible
05 Feb ? 06:41:26 10° SE 06:45:31 28° E 06:49:40 10° NNE visible
06 Feb ? 19:51:39 10° NNW 19:55:59 33° W 20:00:17 10° SW visible
07 Feb ? 06:37:52 10° SE 06:41:45 25° E 06:45:45 10° NNE visible
08 Feb ? 19:47:46 10° N 19:52:13 38° W 19:56:39 10° SW visible
09 Feb ? 06:34:19 10° SE 06:38:00 23° E 06:41:48 10° NNE visible
10 Feb ? 19:43:55 10° N 19:48:27 42° WNW 19:53:00 10° SSW visible
